• In Portugal
  • List of Countries
  • For 7 days
  • Water Temperature
  • Satellite Maps
  • Weather Map
  • Weather Widgets
  • user-avatar
    Login

    Hourly Weather Laszkar Gah

    Today, 21 November, Tuesday

    Time Temperature Precipitation Wind Pressure Humidity
    00:00 +11°C° 0 mm 0 mps 697 mmHg 27%
    01:00 +11°C° 0 mm 0 mps 697 mmHg 28%
    02:00 +10°C° 0 mm 0 mps 696 mmHg 29%
    03:00 +10°C° 0 mm 0 mps 696 mmHg 30%
    04:00 +9°C° 0 mm 0 mps 696 mmHg 33%
    05:00 +9°C° 0 mm 0 mps 696 mmHg 32%
    06:00 +10°C° 0 mm 0 mps 697 mmHg 32%
    07:00 +10°C° 0 mm 0 mps 697 mmHg 32%
    08:00 +12°C° 0 mm 0 mps 697 mmHg 28%
    09:00 +14°C° 0 mm 0 mps 698 mmHg 24%
    10:00 +17°C° 0 mm 0 mps 698 mmHg 19%
    11:00 +17°C° 0 mm 0 mps 698 mmHg 18%
    12:00 +18°C° 0 mm 0 mps 697 mmHg 17%
    13:00 +21°C° 0 mm 1 mps 697 mmHg 16%
    14:00 +21°C° 0 mm 1 mps 697 mmHg 16%
    15:00 +20°C° 0 mm 1 mps 696 mmHg 16%
    16:00 +20°C° 0 mm 1 mps 696 mmHg 16%
    17:00 +19°C° 0 mm 1 mps 696 mmHg 18%
    18:00 +16°C° 0 mm 1 mps 696 mmHg 19%
    19:00 +15°C° 0 mm 1 mps 695 mmHg 21%
    20:00 +14°C° 0 mm 1 mps 695 mmHg 22%
    21:00 +14°C° 0 mm 1 mps 695 mmHg 23%
    22:00 +13°C° 0 mm 1 mps 695 mmHg 24%
    23:00 +13°C° 0 mm 1 mps 695 mmHg 24%

    Tomorrow, 22 November, Wednesday

    Time Temperature Precipitation Wind Pressure Humidity
    00:00 +13°C° 0 mm 2 mps 695 mmHg 24%
    01:00 +13°C° 0 mm 2 mps 695 mmHg 24%
    02:00 +13°C° 0 mm 2 mps 695 mmHg 25%
    03:00 +12°C° 0 mm 3 mps 694 mmHg 25%
    04:00 +12°C° 0 mm 3 mps 694 mmHg 26%
    05:00 +12°C° 0 mm 3 mps 694 mmHg 26%
    06:00 +12°C° 0 mm 3 mps 695 mmHg 26%
    07:00 +12°C° 0 mm 3 mps 695 mmHg 26%
    08:00 +14°C° 0 mm 4 mps 695 mmHg 23%
    09:00 +17°C° 0 mm 4 mps 696 mmHg 20%
    10:00 +18°C° 0 mm 4 mps 696 mmHg 17%
    11:00 +19°C° 0 mm 4 mps 696 mmHg 15%
    12:00 +20°C° 0 mm 4 mps 695 mmHg 13%
    13:00 +21°C° 0 mm 4 mps 695 mmHg 11%
    14:00 +21°C° 0 mm 3 mps 695 mmHg 11%
    15:00 +20°C° 0 mm 3 mps 694 mmHg 11%
    16:00 +20°C° 0 mm 3 mps 694 mmHg 12%
    17:00 +19°C° 0 mm 3 mps 694 mmHg 12%
    18:00 +18°C° 0 mm 3 mps 694 mmHg 13%
    19:00 +17°C° 0 mm 3 mps 694 mmHg 13%
    20:00 +17°C° 0 mm 4 mps 694 mmHg 13%
    21:00 +15°C° 0 mm 4 mps 694 mmHg 13%
    22:00 +15°C° 0 mm 4 mps 694 mmHg 13%
    23:00 +15°C° 0 mm 4 mps 694 mmHg 12%

    Day after tomorrow, 23 November, Thursday

    Time Temperature Precipitation Wind Pressure Humidity
    00:00 +15°C° 0 mm 4 mps 693 mmHg 12%
    01:00 +14°C° 0 mm 4 mps 693 mmHg 12%
    02:00 +14°C° 0 mm 4 mps 693 mmHg 12%
    03:00 +14°C° 0 mm 4 mps 693 mmHg 12%
    04:00 +14°C° 0 mm 4 mps 692 mmHg 12%
    05:00 +14°C° 0 mm 4 mps 693 mmHg 12%
    06:00 +14°C° 0 mm 4 mps 693 mmHg 12%
    07:00 +14°C° 0 mm 4 mps 693 mmHg 12%
    08:00 +17°C° 0 mm 4 mps 694 mmHg 10%
    09:00 +19°C° 0 mm 4 mps 694 mmHg 9%
    10:00 +21°C° 0 mm 4 mps 695 mmHg 7%
    11:00 +22°C° 0 mm 4 mps 694 mmHg 7%
    12:00 +24°C° 0 mm 3 mps 694 mmHg 7%
    13:00 +25°C° 0 mm 3 mps 694 mmHg 8%
    14:00 +24°C° 0 mm 3 mps 693 mmHg 8%
    15:00 +24°C° 0 mm 2 mps 693 mmHg 9%
    16:00 +24°C° 0 mm 2 mps 693 mmHg 10%
    17:00 +21°C° 0 mm 2 mps 693 mmHg 10%
    18:00 +20°C° 0 mm 3 mps 693 mmHg 11%
    19:00 +19°C° 0 mm 3 mps 694 mmHg 12%
    20:00 +19°C° 0 mm 3 mps 694 mmHg 12%
    21:00 +18°C° 0 mm 4 mps 694 mmHg 12%
    22:00 +18°C° 0 mm 4 mps 694 mmHg 13%
    23:00 +17°C° 0 mm 4 mps 694 mmHg 13%

    24 November, Friday

    Time Temperature Precipitation Wind Pressure Humidity
    00:00 +17°C° 0 mm 4 mps 693 mmHg 14%
    01:00 +17°C° 0 mm 4 mps 693 mmHg 14%
    02:00 +15°C° 0 mm 4 mps 693 mmHg 14%
    03:00 +15°C° 0 mm 4 mps 693 mmHg 15%
    04:00 +15°C° 0 mm 4 mps 693 mmHg 15%
    05:00 +15°C° 0 mm 4 mps 693 mmHg 15%
    06:00 +15°C° 0 mm 4 mps 693 mmHg 15%
    07:00 +15°C° 0 mm 4 mps 694 mmHg 15%
    08:00 +18°C° 0 mm 4 mps 694 mmHg 14%
    09:00 +20°C° 0 mm 5 mps 695 mmHg 13%
    10:00 +22°C° 0 mm 5 mps 695 mmHg 11%
    11:00 +23°C° 0 mm 4 mps 695 mmHg 13%
    12:00 +25°C° 0 mm 4 mps 695 mmHg 14%
    13:00 +25°C° 0 mm 3 mps 694 mmHg 15%
    14:00 +25°C° 0 mm 2 mps 694 mmHg 17%
    15:00 +24°C° 0 mm 2 mps 694 mmHg 19%
    16:00 +24°C° 0 mm 1 mps 694 mmHg 21%
    17:00 +23°C° 0 mm 2 mps 694 mmHg 23%
    18:00 +20°C° 0 mm 2 mps 694 mmHg 24%
    19:00 +19°C° 0 mm 2 mps 694 mmHg 26%
    20:00 +19°C° 0 mm 3 mps 695 mmHg 26%
    21:00 +19°C° 0 mm 3 mps 695 mmHg 25%
    22:00 +18°C° 0 mm 4 mps 695 mmHg 25%
    23:00 +18°C° 0 mm 4 mps 694 mmHg 25%

    25 November, Saturday

    Time Temperature Precipitation Wind Pressure Humidity
    00:00 +18°C° 0 mm 4 mps 694 mmHg 26%
    01:00 +17°C° 0 mm 4 mps 694 mmHg 26%
    02:00 +17°C° 0 mm 4 mps 694 mmHg 27%
    03:00 +17°C° 0 mm 4 mps 694 mmHg 28%
    04:00 +15°C° 0 mm 4 mps 694 mmHg 30%
    05:00 +17°C° 0 mm 4 mps 694 mmHg 30%
    06:00 +17°C° 0 mm 4 mps 694 mmHg 30%
    07:00 +17°C° 0 mm 4 mps 695 mmHg 30%
    08:00 +18°C° 0 mm 4 mps 695 mmHg 29%
    09:00 +20°C° 0 mm 4 mps 696 mmHg 27%
    10:00 +21°C° 0 mm 4 mps 696 mmHg 25%
    11:00 +22°C° 0 mm 3 mps 696 mmHg 25%
    12:00 +24°C° 0 mm 3 mps 695 mmHg 26%
    13:00 +25°C° 0 mm 3 mps 695 mmHg 26%
    14:00 +25°C° 0 mm 2 mps 695 mmHg 27%
    15:00 +25°C° 0 mm 2 mps 695 mmHg 27%
    16:00 +24°C° 0 mm 2 mps 695 mmHg 28%
    17:00 +23°C° 0 mm 2 mps 695 mmHg 31%
    18:00 +21°C° 0 mm 2 mps 695 mmHg 33%
    19:00 +20°C° 0 mm 1 mps 696 mmHg 36%
    20:00 +20°C° 0 mm 1 mps 696 mmHg 36%
    21:00 +19°C° 0 mm 1 mps 696 mmHg 37%
    22:00 +19°C° 0 mm 1 mps 696 mmHg 38%
    23:00 +18°C° 0 mm 1 mps 696 mmHg 38%

    26 November, Sunday

    Time Temperature Precipitation Wind Pressure Humidity
    00:00 +18°C° 0 mm 1 mps 696 mmHg 39%
    01:00 +16°C° 0 mm 1 mps 696 mmHg 40%
    02:00 +15°C° 0 mm 1 mps 696 mmHg 41%
    03:00 +15°C° 0 mm 1 mps 696 mmHg 42%
    04:00 +15°C° 0 mm 1 mps 695 mmHg 43%
    05:00 +15°C° 0 mm 1 mps 696 mmHg 43%
    06:00 +15°C° 0 mm 1 mps 696 mmHg 43%
    07:00 +15°C° 0 mm 1 mps 697 mmHg 43%
    08:00 +18°C° 0 mm 1 mps 697 mmHg 39%
    09:00 +20°C° 0 mm 1 mps 698 mmHg 34%
    10:00 +22°C° 0 mm 1 mps 699 mmHg 29%
    11:00 +23°C° 0 mm 1 mps 698 mmHg 26%
    12:00 +23°C° 0 mm 2 mps 698 mmHg 23%
    13:00 +24°C° 0 mm 2 mps 697 mmHg 21%
    14:00 +24°C° 0 mm 2 mps 697 mmHg 20%
    15:00 +24°C° 0 mm 3 mps 697 mmHg 19%
    16:00 +24°C° 0 mm 3 mps 697 mmHg 18%
    17:00 +21°C° 0 mm 3 mps 697 mmHg 20%
    18:00 +20°C° 0 mm 3 mps 697 mmHg 21%
    19:00 +19°C° 0 mm 3 mps 698 mmHg 23%
    20:00 +18°C° 0 mm 3 mps 698 mmHg 23%
    21:00 +17°C° 0 mm 3 mps 697 mmHg 24%
    22:00 +17°C° 0 mm 3 mps 697 mmHg 24%
    23:00 +16°C° 0 mm 2 mps 697 mmHg 24%
    Show more